Regional Weather Roundup
Issued by NWS Sioux Falls, SD

Home | Current Version | Previous Version | Text Only | Print | Product List | Glossary Off
Versions: 1 2 3 4 5 6 7 8 9 10 11 12 13 14 15 16 17 18 19 20 21 22 23 24 25 26 27 28 29 30 31 32 33 34 35 36 37 38 39 40 41 42 43 44 45 46 47 48 49 50

000
ASUS43 KFSD 190902
RWRFSD

WEATHER ROUNDUP FOR SE SOUTH DAKOTA/SW MINNESOTA/NW IOWA
NATIONAL WEATHER SERVICE SIOUX FALLS SD
400 AM CDT THU OCT 19 2017

NOTE: "FAIR" INDICATES FEW OR NO CLOUDS BELOW 12,000 FEET WITH NO
SIGNIFICANT WEATHER AND OR OBSTRUCTIONS TO VISIBILITY.


SDZ038>040-050-052>070-191000-
SOUTHEAST SOUTH DAKOTA

CITY           SKY/WX    TMP DP  RH WIND       PRES   REMARKS
BROOKINGS      CLOUDY    40  31  70 CALM      30.02F
CHAMBERLAIN    CLOUDY    43  36  76 SE8       29.98F
HURON          CLOUDY    40  31  70 S5        29.99F
MADISON        FAIR      39  34  81 S7        30.02S
MITCHELL       CLOUDY    50  28  42 S9        30.01F
SIOUX FALLS    CLOUDY    41  37  86 CALM      30.04F
WINNER         FAIR      54  35  48 S18G25    29.97S
YANKTON        CLOUDY    42  35  76 S3        30.05F
$$

MNZ071-072-080-081-089-090-097-098-191000-
SOUTHWEST MINNESOTA

CITY           SKY/WX    TMP DP  RH WIND       PRES   REMARKS
FAIRMONT       CLOUDY    38  33  82 S3        30.06F
JACKSON        CLOUDY    37  34  87 CALM      30.06F
LUVERNE        CLOUDY    34  32  93 CALM      30.05F
MARSHALL       CLOUDY    45  31  58 SW8       30.02F
MONTEVIDEO     CLOUDY    39  30  70 SW3       30.01S
PIPESTONE      CLOUDY    41  30  65 SE7       30.03F
REDWOOD FALLS  CLOUDY    40  32  73 S5        30.02F
TRACY          CLOUDY    48  33  55 SW8       30.03F
WORTHINGTON    CLOUDY    39  35  86 S5        30.06S
$$

IAZ001>003-012>014-020>022-031-032-NEZ013-014-SDZ071-191000-
NORTHWEST IOWA

CITY           SKY/WX    TMP DP  RH WIND       PRES   REMARKS
CHEROKEE       CLOUDY    37  37 100 CALM      30.07F
DENISON        CLOUDY    41  41 100 NE5       30.08S
ESTHERVILLE    PTCLDY    35  34  96 SW3       30.06S
LE MARS        CLOUDY    39  37  93 CALM      30.06S
ORANGE CITY    CLOUDY    46  37  71 CALM      30.06F
SHELDON        CLOUDY    36  34  93 CALM      30.04F
SIOUX CITY     CLOUDY    38  38 100 SW3       30.06S
SPENCER        CLOUDY    38  35  89 S5        30.06S
STORM LAKE     PTCLDY    45  41  87 E5        30.07F
$$

ABBREVIATIONS USED IN REMARKS
   TC - TEMPERATURE IN CELSIUS
  WCI - WIND CHILL INDEX
   HX - HEAT INDEX
  VSB - VISIBILITY





USA.gov is the U.S. government's official web portal to all federal, state and local government web resources and services.